Weather in Stroganovka

Ukraine / Kherson District     46°15′16″N   33°52′36″E
temp.,
°C
wind,
m/s
gust,
m/s
humid.,
%
clouds,
%
prec.,
mm/h
press.,
hPa
HPBL,
m
26 february, fri
fri2623:00+4wsw6996100 0.5 1030190
02:00+4w5894100 0.6 1029161
05:00+4wsw569294 0.0 102889
08:00+5w349577 0.0 102784
11:00+7w568980 0.0 1027278
14:00+9wsw697860 0.0 1025353
17:00+7wsw710830 0.0 1023226
20:00+6wsw711900 0.0 1022191
27 february, sat
sat2723:00+6sw711910 0.0 1021198
02:00+5wsw711920 0.0 1020209
05:00+5wsw711930 0.0 1018186
08:00+6wsw58920 0.0 1018197
11:00+9wsw56770 0.0 1017322
14:00+11wnw577027 0.0 1016657
17:00+8n577296 0.0 1016448
20:00+6nnw587998 0.0 1017363
28 february, sun
sun2823:00+5nw4677100 0.0 1018163
02:00+4nw4682100 0.0 1018198
05:00+3nnw4687100 0.1 1018220
08:00+3nw469599 0.2 1019372
11:00+4nnw579497 0.2 1020404
14:00+4nnw687798 0.3 1021672
17:00+4nnw586983 0.1 1021789
20:00+3nw478590 0.1 1024246
1 march, mon
mon123:00+2nnw468399 0.1 1024261
02:00+1nnw578997 0.1 1025275
05:000n469129 0.0 1026193
08:00+1n458860 0.0 1027312
11:00+4n346562 0.0 1028876
14:00+4nnw346481 0.1 1028853
17:00+4n456699 0.2 1028593
20:00+2n587499 0.2 1030447
2 march, tue
tue223:00+1nnw357199 0.0 1031252
02:00+1nnw4579100 0.0 1031198
05:00−1nnw348232 0.0 1031137
08:00+1nnw347416 0.0 1031222
11:00+3w335768 0.0 1031690
14:00+5wsw676461 0.0 1029804
17:00+4wsw7873100 0.0 1028534
20:00+4wsw6980100 0.0 1027382